This demonstration page uses our WeatherBlox Daily Observations layout. Learn more.

Left ArrowRight Arrow

Hourly Observations for November 23, 2016

Temp ( °F °C ) Dew Point ( °F °C ) Humidity (%) Winds ( mph kmh ) Pressure ( in mb ) Visibility ( mi km ) Precip ( " mm )
12:53 am 00:53 Clear 38 3.3 28 -2.2 68 68 Calm 30.24 1024 10 16 0.00 0.00
1:53 am 01:53 Clear 37 2.8 28 -2.2 70 70 Calm 30.25 1025 10 16 0.00 0.00
2:53 am 02:53 Clear 36 2.2 29 -1.7 76 76 Calm 30.26 1025 10 16 0.00 0.00
3:53 am 03:53 Clear 35 1.7 29 -1.7 78 78 Calm 30.25 1024 10 16 0.00 0.00
4:53 am 04:53 Clear 35 1.7 29 -1.7 78 78 Calm 30.25 1024 10 16 0.00 0.00
5:53 am 05:53 Clear 35 1.7 29 -1.7 78 78 Calm 30.26 1025 10 16 0.00 0.00
6:53 am 06:53 Clear 37 2.8 30 -1.1 76 76 Calm 30.27 1025 10 16 0.00 0.00
7:53 am 07:53 Sunny 37 2.8 31 -0.6 79 79 Calm 30.28 1025 10 16 0.00 0.00
8:53 am 08:53 Sunny 44 6.7 32 0 63 63 NNE 3 6 30.29 1026 10 16 0.00 0.00
9:53 am 09:53 Sunny 53 11.7 32 0 45 45 Calm 30.29 1026 10 16 0.00 0.00
10:53 am 10:53 Sunny 58 14.4 34 1.1 41 41 undefined N/A 30.28 1026 10 16 0.00 0.00
11:53 am 11:53 Sunny 62 16.7 41 5 46 46 SSE 12 19 30.24 1024 10 16 0.00 0.00
12:53 pm 12:53 Sunny 64 17.8 44 6.7 48 48 SSE 8 13 30.21 1023 10 16 0.00 0.00
1:53 pm 13:53 Sunny 66 18.9 43 6.1 43 43 SSW 10 17 30.18 1022 10 16 0.00 0.00
2:53 pm 14:53 Sunny 69 20.6 43 6.1 39 39 SSE 9 15 30.17 1022 10 16 0.00 0.00
3:53 pm 15:53 Sunny 67 19.4 43 6.1 42 42 SSW 7 11 30.18 1022 10 16 0.00 0.00
4:53 pm 16:53 Sunny 68 20 42 5.6 39 39 S 5 7 30.16 1021 10 16 0.00 0.00
5:53 pm 17:53 Clear 65 18.3 43 6.1 45 45 SSE 6 9 30.14 1021 10 16 0.00 0.00
6:53 pm 18:53 Clear 63 17.2 44 6.7 50 50 Calm 30.14 1021 10 16 0.00 0.00
7:53 pm 19:53 Clear 57 13.9 44 6.7 62 62 Calm 30.16 1021 10 16 0.00 0.00
8:53 pm 20:53 Mostly Cloudy 56 13.3 45 7.2 67 67 NNE 3 6 30.17 1022 10 16 0.00 0.00
9:53 pm 21:53 Cloudy 56 13.3 45 7.2 67 67 Calm 30.18 1022 10 16 0.00 0.00
10:53 pm 22:53 Cloudy 58 14.4 45 7.2 62 62 Calm 30.18 1022 10 16 0.00 0.00
11:53 pm 23:53 Cloudy 57 13.9 46 7.8 67 67 Calm 30.17 1022 10 16 0.00 0.00

Powered by AerisWeather